Location: Bothwell
(42.3833°S, 147.0000°E)
Time: 09:01:17
(UTC+10:00)

UNISAT 6 - Pass Details

Date: 13 August 2024
Orbit: 589 x 662 km, 97.7° (Epoch: 14 September)

Event Time Altitude Azimuth Distance (km) Brightness Sun altitude
Rises 06:18:04 0° 187° (S) 3,045 ? -9.6°
Reaches altitude 10° 06:21:26 10° 213° (SSW) 2,123 ? -9.0°
Maximum altitude 06:23:36 13° 241° (WSW) 1,901 ? -8.6°
Drops below altitude 10° 06:25:45 10° 269° (W) 2,106 ? -8.2°
Enters shadow 06:26:07 - 273° (W) 2,181 ? -8.1°
